Wind_Speed
43 44 45 45 45 46 46 45 44 44 44 44 45 45 45 45 46 46 46 47 47 47 47 47 47 47 47 47 47 48 48 49 49 49 49 48 48 47
44 45 45 45 45 45 46 46 45 44 45 45 46 47 47 47 48 48 48 48 47 47 48 48 48 48 48 48 48 48 48 49 50 50 51 50 50 50
43 44 44 44 44 44 45 47 47 47 46 46 47 48 48 48 48 48 49 49 49 49 48 48 48 49 49 49 49 49 50 49 49 50 50 50 50 50
42 42 43 43 45 45 45 47 48 48 47 47 48 48 49 49 49 50 50 50 49 48 48 48 49 49 49 49 50 50 51 51 50 50 50 50 50 50
42 42 42 42 43 44 45 46 46 47 48 48 48 49 49 50 50 50 50 50 49 50 50 49 49 50 50 50 50 50 50 50 50 50 51 50 50 50
42 42 43 44 45 46 46 46 46 47 47 48 48 49 49 50 50 50 50 50 50 51 50 50 50 50 50 50 50 50 50 50 50 50 50 50 50 50
44 44 45 45 46 47 47 47 47 47 47 48 48 49 49 49 50 50 50 51 51 51 51 51 51 51 50 50 50 50 50 50 50 49 49 49 48 48
45 46 45 45 46 47 47 47 48 49 49 50 50 51 51 50 50 50 50 50 50 50 50 50 50 50 51 50 50 50 49 49 49 48 48 48 48 48
46 46 46 46 45 46 46 47 48 49 51 51 51 51 50 50 50 50 50 50 49 49 49 48 49 49 50 50 50 50 50 49 48 48 47 47 47 48
45 46 46 47 47 46 46 47 47 49 50 51 50 50 50 50 50 49 49 48 48 48 49 49 49 49 50 50 50 50 50 49 48 48 48 48 48 47
45 46 46 46 47 47 47 47 48 49 49 50 50 50 49 48 48 48 48 47 47 48 49 49 49 49 49 49 49 50 49 48 48 48 48 48 48 47
45 45 46 46 47 47 48 48 49 49 50 50 49 48 47 47 47 48 48 47 47 47 48 48 48 48 47 47 48 48 47 47 48 48 48 47 47 46
44 44 45 46 47 48 48 48 49 49 49 49 48 47 47 46 46 47 47 47 47 46 46 47 47 47 47 46 46 47 46 46 46 46 46 45 45 44
43 44 45 47 48 48 48 48 48 47 47 47 46 45 45 45 45 46 45 45 46 45 45 45 45 45 45 45 44 44 44 43 43 43 43 43 43 42
43 44 45 46 46 47 47 47 46 46 46 45 45 44 44 44 44 44 44 44 45 45 44 44 44 44 44 44 43 42 42 41 41 41 41 41 40 40
43 44 44 45 45 45 45 45 45 44 44 43 43 43 43 43 43 44 43 44 44 44 43 42 42 42 42 42 42 41 41 41 40 40 39 39 38 37
43 43 44 44 44 44 44 43 43 43 43 42 42 42 42 42 42 42 42 42 41 41 41 41 41 41 40 40 40 39 39 38 38 38 37 35 35 34
43 43 43 44 44 44 43 43 42 41 41 41 41 41 40 41 40 40 39 39 38 38 38 38 38 38 37 37 37 36 36 35 35 34 33 32 32 32
42 42 43 43 43 43 42 42 41 41 40 40 40 39 39 38 37 36 36 36 35 35 34 34 35 34 34 34 34 34 33 32 31 30 30 29 29 29
41 41 41 41 41 41 40 40 40 39 38 38 38 37 36 35 35 35 34 33 33 32 32 32 32 32 31 32 31 31 31 29 29 29 28 27 26 27
39 39 39 39 38 38 38 37 36 36 36 35 35 35 34 33 33 33 32 32 32 31 31 30 30 30 29 29 28 28 28 28 27 27 26 26 25 26
37 38 37 37 37 36 35 35 34 33 33 33 32 32 32 32 31 31 31 31 31 30 30 29 29 28 27 26 26 26 26 26 25 26 26 25 25 25
35 35 35 35 35 34 33 32 32 31 31 31 31 30 30 30 29 29 29 29 29 29 28 28 27 26 26 26 25 24 24 24 24 24 24 24 24 24
Wind_Direction
268 269 270 271 272 272 272 273 273 272 272 272 273 274 275 276 277 277 278 278 277 277 277 277 277 277 277 276 276 275 273 273 273 273 272 271 270 270
270 269 269 271 272 273 273 273 273 273 272 272 273 273 275 276 277 277 277 277 277 277 276 276 277 277 276 276 275 275 275 275 274 273 271 270 269 268
270 270 270 272 273 273 274 274 274 274 274 274 274 274 275 276 276 276 276 275 276 276 276 276 276 277 277 276 276 275 275 275 275 274 273 271 269 268
270 271 273 274 273 274 274 275 275 275 275 275 275 275 275 275 275 276 276 276 275 275 275 276 276 276 276 276 276 276 276 276 275 275 274 272 270 268
270 271 273 273 274 275 275 275 276 275 275 276 276 275 275 276 275 275 275 275 275 275 275 275 275 276 276 277 277 277 277 276 276 275 274 271 269 267
270 272 273 273 274 275 275 276 276 276 276 276 277 276 277 277 276 275 275 275 275 274 275 275 275 276 277 277 277 277 277 277 275 275 274 272 270 268
271 272 274 274 274 275 275 275 276 277 277 278 279 278 277 277 277 276 276 275 275 274 274 274 275 276 277 278 278 277 277 276 275 274 273 272 271 268
270 272 274 275 276 276 276 276 277 279 280 280 280 280 279 278 278 278 277 277 275 274 274 275 276 277 277 278 278 278 277 276 275 273 272 271 270 269
272 273 274 275 276 277 278 278 278 280 281 281 281 282 281 280 279 279 278 277 275 274 274 274 276 277 277 277 277 278 277 275 274 273 273 271 270 267
273 274 275 275 276 277 278 278 279 280 282 282 282 281 281 280 280 279 278 277 275 275 276 276 276 277 277 277 277 276 275 274 274 274 273 272 271 267
274 275 276 276 277 278 278 279 280 281 282 283 282 281 280 280 280 279 278 278 277 277 278 277 276 276 276 277 277 277 276 275 274 274 274 273 271 268
274 275 277 278 278 279 280 280 281 281 282 282 281 280 279 279 279 279 279 279 278 278 278 277 277 276 276 276 277 277 277 276 276 275 274 273 270 268
274 276 278 279 279 280 281 282 283 282 282 281 280 279 278 279 279 279 280 279 280 279 278 277 277 277 277 276 276 276 276 276 275 275 274 273 271 269
276 277 279 280 280 281 282 283 283 282 281 280 279 278 278 278 279 280 280 280 280 280 279 278 277 276 277 277 276 275 276 275 274 273 273 273 271 270
278 279 280 282 282 282 283 283 282 282 281 280 279 278 278 279 279 280 279 279 280 280 280 278 277 277 277 278 276 276 275 275 275 274 273 272 271 270
280 281 282 283 283 283 283 283 283 283 282 281 279 278 278 279 279 280 279 279 280 280 280 278 277 277 277 277 277 276 275 275 275 274 273 272 271 269
282 281 282 283 283 283 283 283 283 282 281 280 280 279 279 280 280 280 279 279 279 279 279 278 277 277 277 277 277 277 276 275 274 274 272 270 269 268
283 283 283 283 283 283 282 283 282 282 281 281 280 280 280 281 281 281 279 279 279 279 278 278 277 276 276 276 277 277 276 275 274 274 272 270 269 267
285 285 285 284 284 284 283 282 282 281 281 282 281 281 280 280 279 279 279 279 279 279 279 278 278 277 276 276 276 276 275 274 274 274 272 271 269 266
286 285 285 285 285 285 284 283 282 281 281 280 280 280 281 280 280 279 278 278 278 278 279 279 278 277 276 275 274 273 273 273 273 272 272 270 268 265
286 285 285 286 287 286 285 284 283 281 280 279 279 279 279 279 279 279 278 277 277 278 278 277 278 277 276 273 271 271 272 272 271 270 270 269 268 267
287 286 286 286 287 287 287 285 283 281 280 279 279 277 276 276 277 277 276 277 277 276 276 276 277 276 274 272 271 271 270 270 271 270 269 269 268 267
289 288 287 287 286 286 286 285 283 280 279 278 277 276 275 274 274 275 275 276 277 275 274 273 273 272 271 270 269 269 269 269 270 270 270 269 268 268
Height
5687 5687 5687 5687 5686 5686 5685 5684 5684 5684 5684 5682 5680 5678 5676 5674 5673 5671 5669 5668 5666 5664 5662 5661 5659 5658 5657 5655 5654 5654 5653 5652 5652 5652 5651 5651 5651 5651
5676 5675 5675 5675 5674 5673 5672 5672 5671 5671 5670 5670 5668 5665 5663 5662 5660 5658 5656 5654 5652 5651 5649 5648 5646 5645 5644 5643 5642 5641 5640 5639 5638 5638 5637 5637 5637 5637
5663 5663 5663 5662 5662 5661 5660 5659 5658 5658 5657 5657 5654 5652 5650 5648 5646 5645 5643 5641 5639 5637 5636 5634 5632 5631 5630 5629 5628 5627 5626 5625 5624 5623 5622 5622 5622 5623
5652 5651 5651 5650 5650 5649 5647 5646 5645 5644 5643 5643 5641 5639 5637 5635 5633 5631 5629 5627 5625 5623 5621 5620 5618 5617 5616 5615 5613 5612 5611 5610 5609 5608 5608 5608 5608 5608
5641 5640 5640 5639 5638 5637 5635 5634 5632 5631 5629 5628 5627 5625 5623 5621 5619 5617 5615 5613 5611 5609 5608 5606 5604 5603 5602 5600 5599 5598 5597 5596 5595 5594 5593 5593 5593 5593
5629 5628 5628 5627 5626 5625 5623 5621 5619 5618 5616 5614 5613 5611 5609 5606 5605 5603 5602 5599 5597 5595 5594 5592 5590 5589 5587 5586 5585 5584 5582 5581 5580 5579 5578 5578 5578 5578
5617 5616 5615 5614 5613 5612 5610 5608 5606 5605 5603 5601 5599 5597 5595 5592 5590 5588 5587 5585 5583 5581 5579 5578 5576 5575 5573 5571 5570 5568 5567 5566 5565 5564 5563 5562 5562 5563
5605 5604 5603 5601 5600 5598 5597 5595 5593 5591 5590 5588 5586 5583 5580 5578 5575 5573 5571 5570 5569 5567 5565 5563 5561 5560 5558 5557 5555 5554 5552 5551 5550 5549 5548 5547 5547 5548
5592 5591 5590 5588 5587 5585 5583 5582 5580 5577 5575 5574 5571 5569 5566 5563 5561 5559 5556 5554 5554 5552 5550 5550 5547 5546 5544 5542 5540 5539 5537 5536 5535 5534 5533 5532 5532 5532
5579 5578 5577 5575 5573 5572 5571 5569 5566 5564 5561 5559 5557 5554 5551 5547 5545 5544 5541 5540 5539 5537 5535 5535 5533 5531 5529 5527 5525 5524 5522 5521 5520 5519 5518 5517 5517 5517
5566 5565 5564 5562 5560 5559 5557 5556 5553 5550 5547 5544 5542 5539 5536 5533 5531 5529 5527 5526 5525 5523 5520 5520 5519 5517 5516 5513 5511 5509 5507 5506 5505 5504 5503 5502 5502 5502
5554 5552 5551 5549 5546 5544 5543 5541 5539 5536 5533 5530 5527 5525 5522 5519 5517 5515 5513 5512 5510 5510 5507 5505 5504 5501 5502 5500 5497 5495 5493 5492 5490 5489 5488 5487 5487 5487
5540 5539 5537 5535 5533 5531 5528 5526 5524 5521 5519 5516 5514 5511 5509 5506 5504 5502 5499 5498 5496 5495 5493 5491 5489 5487 5485 5486 5485 5482 5480 5478 5476 5475 5474 5473 5473 5473
5527 5526 5524 5522 5519 5517 5514 5512 5509 5507 5504 5502 5499 5498 5495 5493 5491 5489 5486 5484 5482 5480 5478 5476 5474 5473 5471 5471 5471 5469 5466 5464 5463 5462 5461 5460 5460 5460
5514 5512 5510 5508 5505 5503 5500 5498 5495 5492 5490 5488 5486 5484 5482 5480 5478 5475 5473 5470 5468 5466 5464 5462 5460 5459 5457 5457 5456 5455 5453 5452 5450 5449 5448 5447 5447 5447
5501 5499 5496 5494 5491 5489 5486 5484 5481 5479 5476 5474 5472 5471 5469 5467 5464 5462 5460 5457 5455 5453 5450 5448 5446 5445 5444 5443 5442 5441 5440 5439 5438 5436 5435 5435 5434 5434
5487 5485 5483 5481 5478 5476 5473 5470 5468 5465 5463 5461 5459 5457 5455 5453 5451 5448 5446 5444 5442 5440 5438 5435 5434 5432 5431 5430 5429 5428 5427 5426 5425 5424 5424 5423 5423 5423
5474 5472 5470 5468 5465 5462 5460 5457 5454 5452 5450 5448 5446 5444 5442 5440 5438 5436 5433 5431 5429 5427 5425 5424 5422 5421 5420 5419 5418 5417 5416 5415 5414 5414 5413 5413 5413 5413
5461 5459 5456 5454 5451 5448 5446 5443 5441 5439 5437 5435 5433 5431 5429 5427 5425 5424 5422 5420 5418 5416 5414 5412 5411 5410 5409 5409 5408 5406 5406 5405 5405 5404 5404 5404 5404 5404
5448 5446 5443 5441 5438 5435 5433 5430 5428 5426 5424 5422 5421 5419 5417 5416 5414 5412 5411 5409 5408 5406 5404 5402 5401 5400 5399 5399 5398 5397 5396 5396 5396 5396 5395 5395 5395 5395
5436 5433 5431 5428 5426 5423 5420 5418 5416 5414 5412 5411 5409 5408 5406 5405 5404 5402 5400 5399 5398 5397 5395 5394 5392 5391 5390 5390 5389 5389 5388 5387 5387 5387 5387 5387 5387 5387
5424 5421 5419 5416 5414 5411 5409 5406 5404 5402 5401 5400 5398 5397 5396 5395 5394 5392 5391 5390 5389 5387 5386 5385 5384 5382 5382 5382 5381 5381 5381 5380 5379 5379 5379 5379 5379 5380
5413 5410 5407 5405 5402 5400 5398 5396 5394 5392 5391 5390 5388 5387 5386 5386 5385 5383 5382 5381 5380 5379 5378 5377 5376 5375 5374 5374 5374 5374 5374 5373 5373 5372 5372 5372 5372 5373